Flag for Germany Weather past 2 weeks in Fürth, Bavaria, Germany

Now
27 °F

Snow. Partly sunny.


Feels Like: 16 °F
Forecast: 10 / 33 °F
Wind: 12 mph from East

Location: Nuernberg

Current Time: Dec 27, 2014 at 4:15:28 PM

Latest Report: Dec 27, 2014 at 3:50 PM


Visibility: 1 mi

Pressure: 29.50 "Hg

Humidity: 100%

Dew point: 27 °F

Location of FürthLocation

Historic Weather in Fürth — Graph

°F

Fürth temperature yesterday

Maximum temperature yesterday: 37 °F (at 11:50 AM)
Minimum temperature yesterday: 23 °F (at 10:50 PM)
Average temperature yesterday: 32 °F

Past Weeks' High & Low Weather Summary

 TemperatureHumidityPressure
High54 °F (Dec 18, 9:20 PM)100% (Dec 14, 12:50 AM)30.45 "Hg (Dec 14, 12:50 AM)
Low23 °F (Dec 26, 10:50 PM)58% (Dec 13, 12:20 PM)29.50 "Hg (Dec 27, 2:50 PM)
Average42 °F87%30.07 "Hg
* Reported Dec 12 3:20 PM — Dec 27 3:20 PM, Fürth, Weather by CustomWeather, © 2014

Note: Actual official high and low records may vary slightly from our data, if they occured in-between our weather recording intervals... More about our weather records

Advertising

Fürth weather history for previous 24 hours

 ConditionsComfort  
Time TempWeatherWind HumidityBarometerVisibility
3:20 PM
Dec 27
27 °FSnow. Partly sunny.13 mph100%29.50 "Hg1 mi
2:50 PM27 °FSnow. Partly sunny.12 mph100%29.50 "Hg1 mi
2:20 PM27 °FSnow. Partly sunny.16 mph100%29.53 "Hg1 mi
1:50 PM28 °FLight snow. Scattered clouds.15 mph86%29.53 "Hg1 mi
1:20 PM28 °FLight snow. Partly sunny.15 mph86%29.53 "HgN/A
12:50 PM28 °FLight snow. Broken clouds.17 mph86%29.56 "HgN/A
12:20 PM30 °FLight snow. Broken clouds.15 mph80%29.59 "HgN/A
11:50 AM30 °FBroken clouds.14 mph80%29.62 "HgN/A
11:20 AM30 °FBroken clouds.16 mph86%29.62 "HgN/A
10:50 AM30 °FPartly sunny.8 mph86%29.65 "HgN/A
10:20 AM28 °FPartly sunny.9 mph93%29.68 "HgN/A
9:50 AM28 °FPartly sunny.10 mph93%29.71 "HgN/A
9:20 AM28 °FBroken clouds.10 mph93%29.71 "HgN/A
8:50 AM28 °FPartly sunny.9 mph100%29.74 "HgN/A
8:20 AM28 °FPartly sunny.8 mph100%29.77 "HgN/A
7:50 AM28 °FPassing clouds.6 mph100%29.80 "HgN/A
7:20 AM28 °FPassing clouds.7 mph100%29.83 "HgN/A
6:50 AM28 °FPassing clouds.6 mph100%29.86 "HgN/A
6:20 AM28 °FPassing clouds.7 mph100%29.89 "HgN/A
5:50 AM28 °FPassing clouds.6 mph100%29.92 "HgN/A
5:20 AM27 °FPassing clouds.7 mph100%29.95 "HgN/A
4:20 AM27 °FPassing clouds.5 mph100%30.01 "HgN/A
3:50 AM27 °FPassing clouds.5 mph100%30.04 "HgN/A
3:20 AM27 °FPassing clouds.5 mph100%30.07 "HgN/A
2:50 AM28 °FPassing clouds.3 mph100%30.09 "Hg4 mi
2:20 AM28 °FPartly cloudy.No wind100%30.12 "Hg4 mi
1:50 AM28 °FPassing clouds.1 mph100%30.12 "Hg4 mi
1:20 AM27 °FPassing clouds.2 mph100%30.15 "Hg4 mi
12:50 AM27 °FPartly cloudy.5 mph100%30.15 "Hg5 mi
12:20 AM25 °FPassing clouds.5 mph100%30.18 "HgN/A
11:50 PM
Dec 26
25 °FPassing clouds.5 mph100%30.21 "Hg6 mi
11:20 PM23 °FFog.3 mph100%30.21 "Hg4 mi
10:50 PM23 °FFog.3 mph100%30.24 "Hg4 mi
10:20 PM25 °FFog.3 mph100%30.24 "Hg6 mi
9:50 PM27 °FClear.2 mph100%30.24 "Hg10 mi
9:20 PM27 °FFog.2 mph100%30.27 "HgN/A
8:50 PM27 °FFog.1 mph100%30.27 "Hg6 mi
8:20 PM28 °FFog.1 mph100%30.27 "HgN/A
7:50 PM27 °FFog.1 mph100%30.30 "HgN/A
7:20 PM28 °FFog.1 mph100%30.30 "HgN/A
6:50 PM30 °FFog.1 mph100%30.30 "HgN/A
6:20 PM30 °FPassing clouds.2 mph100%30.30 "HgN/A
5:20 PM30 °FPassing clouds.2 mph100%30.30 "HgN/A
4:50 PM30 °FPassing clouds.1 mph100%30.30 "HgN/A
4:20 PM32 °FSnow flurries. Scattered clouds.5 mph100%30.30 "Hg2 mi
Weather by CustomWeather, © 2014

See weather overviewHow to use our weather pages